Location: Borojevi?i
(45.0486°N, 16.2297°E)
Time: 08:22:42
(UTC+00:00)

Intercosmos 25 - Pass Details

Date: 08 August 2020
Orbit: 439 x 2877 km, 82.6° (Epoch: 26 September)

Event Time Altitude Azimuth Distance (km) Brightness Sun altitude
Rises 19:50:44 0° 347° (NNW) 3,357 8.3 -15.5°
Reaches altitude 10° 19:53:34 10° 342° (NNW) 2,133 7.3 -15.8°
Maximum altitude 19:57:47 46° 269° (W) 722 4.2 -16.4°
Enters shadow 20:00:21 15° 199° (SSW) 1,350 5.1 -16.7°
